Погода в Татарбунарах

Украина / Одесская область     45°50′12″N   29°37′00″E
В апреле 2022 года жителям России запретили посещать сайт meteo.paraplan.net по решению Генеральной прокуратуры. Аудитория сайта уменьшилась в 10 раз. Владельцы сайта не видят смысла в поддержке погодного сервера в таких условиях. Сайт будет закрыт в октябре.
темп.,
°C
ветер,
м/с
пор.,
м/с
влажн.,
%
обл.,
%
осадки,
мм/ч
давл.,
гПа
погр.,
м
29 сентября, чт
чт2900:00+18ю225386 0.0 100611
03:00+17ююв335537 0.0 100623
06:00+16ююз3460100 0.0 100753
09:00+20ю3450100 0.0 1007207
12:00+27ююв78375 0.0 10071316
15:00+27ююв8941100 0.0 10061113
18:00+23ююв61058100 0.0 1006410
21:00+20ююв4108396 0.0 1008257
30 сентября, пт
пт3000:00+19ю31086100 0.0 1008278
03:00+18ю46916 0.0 100994
06:00+17зюз23775 0.0 101021
09:00+21зюз3548100 0.0 1012260
12:00+27з453363 0.0 1013919
15:00+29з45250 0.0 10132094
18:00+28юз34295 0.0 101491
21:00+21ююз36510 0.0 101587
1 октября, сб
сб100:00+19юз466289 0.0 101699
03:00+20юз355198 0.0 101770
06:00+19юз33555 0.0 101832
09:00+23юз23445 0.0 1018199
12:00+29юз462944 0.0 10171300
15:00+31юз5723100 0.0 10152165
18:00+28ююз793253 0.0 1014532
21:00+21ю51166100 0.0 1014214
2 октября, вс
вс200:00+21ю51166100 0.0 1012243
03:00+20ююв41174100 0.0 1009282
06:00+21ююз3970100 0.0 1008422
09:00+20вюв1282100 0.7 1008141
12:00+20св3481100 1.1 1006424
15:00+17сз4694100 21.2 1004573
18:00+15ссз111888100 19.5 1005902
21:00+14ссз121982100 23.7 1008950
3 октября, пн
пн300:00+14ссз11187191 1.8 10091046
03:00+13ссз111876100 1.8 1010894
06:00+12сз916770 0.0 1011858
09:00+13сз916706 0.0 10121121
12:00+17сз101346100 0.0 10122109
15:00+17сз4844100 0.0 10121412
18:00+16зсз2352100 0.1 101288
21:00+14юз235884 0.1 101323